Williamsport, PA

2:22 PM EDT on March 28, 2017 (GMT -0400)
Williamsport Rgnl

Weather History for KIPT - July, 2014

Change the Weather History Date:

Wednesday, July 30, 2014

  Actual Average Record
Temperature  
Mean Temperature 66 °F 73 °F  
Max Temperature 77 °F 83 °F 98 °F (1933)
Min Temperature 54 °F 62 °F 48 °F (1997)
Degree Days  
Heating Degree Days 0 0  
Month to date heating degree days 0 0  
Since 1 June heating degree days 8 37  
Since 1 July heating degree days 0 0  
Cooling Degree Days 1 8  
Month to date cooling degree days 233 237  
Year to date cooling degree days 454 426  
Since 1 June cooling degree days 402 383  
Growing Degree Days 16 (Base 50)    
Moisture  
Dew Point 55 °F    
Average Humidity 70    
Maximum Humidity 93    
Minimum Humidity 46    
Precipitation  
Precipitation 0.22 in 0.15 in 3.29 in (2000)
Month to date precipitation 3.99 4.20  
Year to date precipitation 22.20 23.03  
Sea Level Pressure  
Sea Level Pressure 30.03 in    
Wind  
Wind Speed 3 mph (West)    
Max Wind Speed 17 mph    
Max Gust Speed 23 mph    
Visibility 9 miles    
Events Rain , Thunderstorm    
T = Trace of Precipitation, MM = Missing Value Source: NWS Daily Summary

Daily Weather History Graph

Daily Weather History Graph

Search for Another Location

Airport or City:

Trip Planner

Search our weather history database for the weather conditions in past years. The results will help you decide how hot, cold, wet, or windy it might be!

Date:

Astronomy

Jul. 30, 2014 Rise Set
Actual Time 6:01 AM EDT 8:26 PM EDT
Civil Twilight 5:29 AM EDT 8:57 PM EDT
Nautical Twilight 4:51 AM EDT 9:36 PM EDT
Astronomical Twilight 4:07 AM EDT 10:19 PM EDT
Moon 9:33 AM EDT (7/30) 10:05 PM EDT (7/30)
Length of Visible Light 15h 27m
Length of Day
14h 25m
Waxing Crescent, 12% of the Moon is Illuminated
Jul 30
Waxing Crescent
Aug 3
First Quarter
Aug 10
Full
Aug 17
Last Quarter
Aug 25
New

Hourly Weather History & Observations

Time (EDT) Temp. Dew Point Humidity Pressure Visibility Wind Dir Wind Speed Gust Speed Precip Events Conditions
12:54 AM 60.1 °F 55.0 °F 83% 30.00 in 10.0 mi Calm Calm - N/A   Overcast
1:54 AM 57.0 °F 53.1 °F 87% 30.00 in 10.0 mi Calm Calm - N/A   Clear
2:54 AM 55.9 °F 53.1 °F 90% 30.00 in 10.0 mi Calm Calm - N/A   Clear
3:40 AM 55.9 °F 53.1 °F 90% 30.01 in 10.0 mi Calm Calm - N/A   Partly Cloudy
3:54 AM 55.9 °F 53.1 °F 90% 30.00 in 10.0 mi Calm Calm - N/A   Partly Cloudy
4:29 AM 55.0 °F 52.0 °F 89% 30.00 in 10.0 mi Calm Calm - N/A   Mostly Cloudy
4:54 AM 55.0 °F 52.0 °F 89% 30.01 in 10.0 mi North 3.5 mph - N/A   Overcast
5:10 AM 55.0 °F 52.0 °F 89% 30.01 in 10.0 mi North 3.5 mph - N/A   Overcast
5:37 AM 55.0 °F 52.0 °F 89% 30.02 in 10.0 mi Calm Calm - N/A   Overcast
5:54 AM 55.0 °F 52.0 °F 89% 30.02 in 10.0 mi Calm Calm - N/A   Overcast
6:44 AM 55.9 °F 53.1 °F 90% 30.04 in 4.0 mi NNW 3.5 mph - N/A   Overcast
6:54 AM 55.9 °F 53.1 °F 90% 30.04 in 4.0 mi NNW 3.5 mph - N/A   Overcast
7:54 AM 57.0 °F 53.1 °F 87% 30.05 in 4.0 mi Calm Calm - N/A   Overcast
8:09 AM 57.0 °F 54.0 °F 89% 30.06 in 4.0 mi ENE 3.5 mph - N/A   Overcast
8:54 AM 57.9 °F 54.0 °F 87% 30.06 in 4.0 mi Calm Calm - N/A   Overcast
9:09 AM 57.9 °F 54.0 °F 87% 30.06 in 9.0 mi Calm Calm - N/A   Overcast
9:54 AM 60.1 °F 54.0 °F 80% 30.06 in 8.0 mi Calm Calm - N/A   Scattered Clouds
10:54 AM 64.0 °F 55.0 °F 73% 30.06 in 10.0 mi Calm Calm - N/A   Clear
11:54 AM 70.0 °F 55.0 °F 59% 30.04 in 10.0 mi WSW 6.9 mph - N/A   Scattered Clouds
12:28 PM 72.0 °F 55.0 °F 55% 30.03 in 10.0 mi Calm Calm - N/A   Scattered Clouds
12:30 PM 72.0 °F 55.0 °F 55% 30.03 in 10.0 mi Variable 3.5 mph - N/A   Scattered Clouds
12:54 PM 72.0 °F 54.0 °F 53% 30.02 in 10.0 mi Calm Calm - N/A   Scattered Clouds
1:54 PM 73.9 °F 52.0 °F 46% 30.01 in 10.0 mi SW 5.8 mph - N/A   Mostly Cloudy
2:54 PM 73.9 °F 54.0 °F 50% 29.99 in 10.0 mi South 3.5 mph - N/A   Mostly Cloudy
3:54 PM 75.0 °F 54.0 °F 48% 29.99 in 10.0 mi South 8.1 mph - N/A   Mostly Cloudy
4:54 PM 73.9 °F 54.0 °F 50% 29.98 in 10.0 mi South 8.1 mph - N/A   Scattered Clouds
5:54 PM 73.9 °F 53.1 °F 48% 29.98 in 10.0 mi SSW 6.9 mph - N/A   Mostly Cloudy
6:21 PM 73.4 °F 53.6 °F 50% 29.99 in 10.0 mi South 8.1 mph - N/A Thunderstorm Overcast
6:54 PM 64.9 °F 60.1 °F 84% 30.00 in 9.0 mi Calm Calm - 0.04 in Rain , Thunderstorm Light Rain
7:06 PM 64.9 °F 61.0 °F 87% 30.03 in 9.0 mi WNW 11.5 mph - 0.00 in Rain , Thunderstorm Light Thunderstorms and Rain
7:41 PM 64.0 °F 59.0 °F 84% 30.03 in 10.0 mi West 10.4 mph - 0.05 in Rain Light Rain
7:54 PM 63.0 °F 57.9 °F 84% 30.03 in 10.0 mi West 8.1 mph - 0.05 in Rain Light Rain
8:54 PM 61.0 °F 55.9 °F 83% 30.05 in 10.0 mi West 3.5 mph - 0.13 in Rain Light Rain
9:54 PM 61.0 °F 57.0 °F 87% 30.06 in 10.0 mi Calm Calm - 0.00 in   Overcast
10:25 PM 61.0 °F 57.0 °F 87% 30.06 in 10.0 mi Calm Calm - N/A   Mostly Cloudy
10:54 PM 60.8 °F 57.2 °F 88% 30.06 in 9.0 mi Calm Calm - N/A   Mostly Cloudy
11:03 PM 61.0 °F 57.9 °F 90% 30.06 in 9.0 mi Calm Calm - N/A   Overcast
11:30 PM 60.1 °F 57.0 °F 90% 30.06 in 9.0 mi NNW 3.5 mph - N/A   Overcast
11:54 PM 60.1 °F 57.0 °F 90% 30.05 in 9.0 mi NNW 3.5 mph - N/A   Overcast